Terug naar catalogus

CZ-6A R/B

ActiefSSO
NORAD 58200·ROCKET BODY·🇨🇳 China

Gelanceerd Oct 31, 2023 vanaf Taiyuan Satellite Launch Center

Loading…

Volgende Passages (komende 24 uur)

TLE

VersSource: Space-Track

Epoch: Sep 14, 2026, 21:06 UTC

1 58200U 23168B   26257.87973951  .00004093  00000-0  19810-3 0  9994
2 58200  97.7332 297.7978 0060689  46.7914 313.8365 15.17539460158449

Volg CZ-6A R/B in realtime met AllMySat

Download on the App Store